Location: Igri�s
(42.2144°N, 0.4320°W)
Time: 10:16:55
(UTC+00:00)

ATLAS 3B R/B - Pass Details

Date: 13 August 2020
Orbit: 1016 x 1179 km, 63.8° (Epoch: 17 September)

Event Time Altitude Azimuth Distance (km) Brightness Sun altitude
Exits shadow 22:01:48 45° 205° (SSW) 1,356 3.0 -26.6°
Maximum altitude 22:04:02 83° 122° (ESE) 1,028 2.4 -26.9°
Drops below altitude 10° 22:10:40 10° 36° (NE) 2,827 5.1 -27.5°
Sets 22:13:18 0° 36° (NE) 3,796 5.9 -27.8°
